Location: Unspecified
(0.0000°N, 0.0000°E)
Time: 21:21:27
(UTC+00:00)

STARLINK-11597 [DTC] - Visible Passes

Search period start: 06 March 2026 00:00
Search period end: 16 March 2026 00:00
Orbit: 353 x 359 km, 43.0° (Epoch: 6 March)

Date Brightness Start Highest point End Pass type
(mag) Time Alt. Az. Time Alt. Az. Time Alt. Az.
6 Mar ? 05:16:42 10° SSE 05:18:16 13° SE 05:19:51 10° ESE visible
7 Mar ? 05:42:42 10° SW 05:45:39 89° NW 05:48:37 10° NE visible
8 Mar ? 04:36:30 20° SE 04:36:49 20° SE 04:39:06 10° E visible
9 Mar ? 05:03:32 52° NW 05:03:36 52° NW 05:06:29 10° NNE visible
